Thermal
DateTemperatureDew Point
05/26 - 12:15 PM91.4°53.3°
05/26 - 12:00 PM90.6°53.5°
05/26 - 11:45 AM89.0°53.0°
05/26 - 11:30 AM87.9°53.2°
05/26 - 11:15 AM87.0°53.2°
05/26 - 11:00 AM85.6°54.1°
05/26 - 10:45 AM83.8°52.6°
05/26 - 10:30 AM82.6°54.1°
05/26 - 10:15 AM81.7°55.1°
05/26 - 10:00 AM80.2°54.8°
05/26 - 09:45 AM78.7°54.6°
05/26 - 09:30 AM77.7°54.6°
05/26 - 09:15 AM77.4°55.4°
05/26 - 09:00 AM75.3°55.1°
05/26 - 08:45 AM73.6°55.1°
05/26 - 08:30 AM72.7°55.2°
05/26 - 08:15 AM71.2°54.4°
05/26 - 08:00 AM70.1°53.9°
05/26 - 07:45 AM68.5°53.8°
05/26 - 07:30 AM67.5°53.9°
05/26 - 07:15 AM66.3°53.7°
05/26 - 07:00 AM65.3°53.5°
05/26 - 06:45 AM64.0°52.9°
05/26 - 06:30 AM61.6°52.5°
05/26 - 06:15 AM59.0°52.9°
05/26 - 06:00 AM58.7°52.2°
05/26 - 05:45 AM58.4°51.8°
05/26 - 05:30 AM57.1°51.8°
05/26 - 05:15 AM57.2°51.8°
05/26 - 05:00 AM58.6°51.7°
05/26 - 04:45 AM59.5°51.6°
05/26 - 04:30 AM59.4°52.4°
05/26 - 04:15 AM59.4°52.6°
05/26 - 04:00 AM60.0°52.4°
05/26 - 03:45 AM61.0°52.4°
05/26 - 03:30 AM61.9°52.3°
05/26 - 03:15 AM62.5°52.1°
05/26 - 03:00 AM60.8°51.9°
05/26 - 02:45 AM61.8°52.2°
05/26 - 02:30 AM62.7°52.3°
05/26 - 02:15 AM63.5°52.4°
05/26 - 02:00 AM64.3°51.9°
05/26 - 01:45 AM64.3°51.9°
05/26 - 01:30 AM64.6°52.0°
05/26 - 01:15 AM65.2°52.0°
05/26 - 01:00 AM65.7°52.1°
05/26 - 12:45 AM66.4°52.0°
05/26 - 12:30 AM67.0°52.0°
05/26 - 12:15 AM67.6°52.0°
05/26 - 12:00 AM68.1°52.0°
05/25 - 11:45 PM68.5°51.9°
05/25 - 11:30 PM69.0°51.9°
05/25 - 11:15 PM69.7°51.7°
05/25 - 11:00 PM70.6°51.5°
05/25 - 10:45 PM71.0°51.5°
05/25 - 10:30 PM71.6°51.2°
05/25 - 10:15 PM72.2°51.0°
05/25 - 10:00 PM73.0°50.9°
05/25 - 09:45 PM73.5°50.9°
05/25 - 09:30 PM74.1°51.0°
05/25 - 09:15 PM74.9°50.7°
05/25 - 09:00 PM75.7°50.4°
05/25 - 08:45 PM76.4°50.0°
05/25 - 08:30 PM77.0°50.0°
05/25 - 08:15 PM78.0°49.8°
05/25 - 08:00 PM78.8°49.8°
05/25 - 07:45 PM79.4°50.1°
05/25 - 07:30 PM80.9°50.3°
05/25 - 07:15 PM82.4°50.9°
05/25 - 07:00 PM83.9°50.7°
05/25 - 06:45 PM85.1°50.4°
05/25 - 06:30 PM86.4°50.4°
05/25 - 06:15 PM87.9°50.1°
05/25 - 06:00 PM88.5°49.8°
05/25 - 05:45 PM89.1°50.1°
05/25 - 05:30 PM89.7°52.7°
05/25 - 05:15 PM90.3°50.5°
05/25 - 05:00 PM91.9°51.2°
05/25 - 04:45 PM90.9°52.8°
05/25 - 04:30 PM90.2°50.7°
05/25 - 04:15 PM91.1°52.0°
05/25 - 04:00 PM89.8°52.1°
05/25 - 03:45 PM90.0°50.4°
05/25 - 03:30 PM90.5°50.0°
05/25 - 03:15 PM90.5°50.3°
05/25 - 03:00 PM89.6°49.8°
05/25 - 02:45 PM88.9°50.1°
05/25 - 02:30 PM88.3°49.6°
05/25 - 02:15 PM89.1°50.5°
05/25 - 02:00 PM87.8°50.6°
05/25 - 01:45 PM88.3°50.3°
05/25 - 01:30 PM87.4°49.9°
05/25 - 01:15 PM86.7°50.0°
05/25 - 01:00 PM85.2°50.0°
05/25 - 12:45 PM84.1°49.6°
05/25 - 12:30 PM84.3°48.6°
05/25 - 12:15 PM84.5°49.9°
05/25 - 12:00 PM83.8°49.7°
05/25 - 11:45 AM83.3°49.8°
05/25 - 11:30 AM82.6°50.0°
05/25 - 11:15 AM82.3°49.0°
05/25 - 11:00 AM80.2°48.9°
05/25 - 10:45 AM80.3°48.5°
05/25 - 10:30 AM81.0°49.3°
05/25 - 10:15 AM80.0°48.9°
05/25 - 10:00 AM77.8°49.9°
05/25 - 09:45 AM77.0°49.6°
05/25 - 09:30 AM75.4°50.1°
05/25 - 09:15 AM75.3°50.5°
05/25 - 09:00 AM74.5°49.9°
05/25 - 08:45 AM74.1°49.8°
05/25 - 08:30 AM74.1°50.3°
05/25 - 08:15 AM72.3°50.1°
05/25 - 08:00 AM70.1°50.1°
05/25 - 07:45 AM69.5°50.7°
05/25 - 07:30 AM69.1°50.2°
05/25 - 07:15 AM68.3°49.5°
05/25 - 07:00 AM68.3°49.5°
05/25 - 06:45 AM67.6°49.1°
05/25 - 06:30 AM65.6°48.8°
05/25 - 06:15 AM63.8°49.0°
05/25 - 06:00 AM61.0°48.6°
05/25 - 05:45 AM60.5°48.8°
05/25 - 05:30 AM61.8°48.8°
05/25 - 05:15 AM63.0°48.5°
05/25 - 05:00 AM63.4°48.9°
05/25 - 04:45 AM64.1°48.8°
05/25 - 04:30 AM65.1°49.0°
05/25 - 04:15 AM65.7°49.0°
05/25 - 04:00 AM64.0°49.5°
05/25 - 03:45 AM64.6°49.8°
05/25 - 03:30 AM64.7°49.9°
05/25 - 03:15 AM64.9°50.1°
05/25 - 03:00 AM64.1°50.6°
05/25 - 02:45 AM64.5°50.9°
05/25 - 02:30 AM65.5°50.8°
05/25 - 02:15 AM66.3°50.7°
05/25 - 02:00 AM66.7°50.6°
05/25 - 01:45 AM66.8°50.7°
05/25 - 01:30 AM66.5°51.0°
05/25 - 01:15 AM66.8°51.1°
05/25 - 01:00 AM66.1°51.2°
05/25 - 12:45 AM65.6°51.9°
05/25 - 12:30 AM67.1°51.4°
05/25 - 12:15 AM67.9°51.3°
05/25 - 12:00 AM68.2°51.0°
05/24 - 11:45 PM68.5°51.3°
05/24 - 11:30 PM69.1°51.1°
05/24 - 11:15 PM69.6°51.0°
05/24 - 11:00 PM70.1°50.8°
05/24 - 10:45 PM70.5°50.4°
05/24 - 10:30 PM71.0°50.1°
05/24 - 10:15 PM71.7°49.8°
05/24 - 10:00 PM72.2°50.1°
05/24 - 09:45 PM73.1°49.8°
05/24 - 09:30 PM73.8°49.7°
05/24 - 09:15 PM74.1°49.6°
05/24 - 09:00 PM74.6°49.8°
05/24 - 08:45 PM75.1°50.0°
05/24 - 08:30 PM75.9°50.1°
05/24 - 08:15 PM76.5°50.0°
05/24 - 08:00 PM77.4°49.6°
05/24 - 07:45 PM78.4°49.3°
05/24 - 07:30 PM79.5°49.2°
05/24 - 07:15 PM80.9°49.0°
05/24 - 07:00 PM82.3°48.9°
05/24 - 06:45 PM83.4°49.1°
05/24 - 06:30 PM84.3°49.3°
05/24 - 06:15 PM85.1°49.9°
05/24 - 06:00 PM85.9°50.8°
05/24 - 05:45 PM87.4°51.4°
05/24 - 05:30 PM88.5°51.4°
05/24 - 05:15 PM89.5°51.5°
05/24 - 05:00 PM89.4°51.7°
05/24 - 04:45 PM89.5°51.2°
05/24 - 04:30 PM90.0°51.6°
05/24 - 04:15 PM90.8°52.4°
05/24 - 04:00 PM91.2°52.2°
05/24 - 03:45 PM92.0°52.2°
05/24 - 03:30 PM91.6°52.1°
05/24 - 03:15 PM92.2°52.5°
05/24 - 03:00 PM91.9°52.6°
05/24 - 02:45 PM91.7°52.4°
05/24 - 02:30 PM90.8°51.8°
05/24 - 02:15 PM90.9°53.0°
05/24 - 02:00 PM89.6°52.0°
05/24 - 01:45 PM89.4°52.8°